Regional Weather Roundup
Issued by NWS Albany, NY

Home | Current Version | Previous Version | Text Only | Print | Product List | Glossary On
Versions: 1 2 3 4 5 6 7 8 9 10 11 12 13 14 15 16 17 18 19 20 21 22 23 24 25 26 27 28
000
ASUS41 KALY 231510
RWRALY

NEW YORK STATE HOURLY WEATHER ROUNDUP
NATIONAL WEATHER SERVICE ALBANY NY
1100 AM EDT WED AUG 23 2017

NOTE: "FAIR" INDICATES FEW OR NO CLOUDS BELOW 12,000 FEET WITH NO
SIGNIFICANT WEATHER AND/OR NO OBSTRUCTIONS TO VISIBILITY.

NYZ032-033-038>043-046>054-057>066-NYZ062>081-082-084-231600-
EAST


CITY           SKY/WX    TMP DP  RH WIND       PRES   REMARKS
ALBANY         PTSUNNY   71  55  56 N9        29.84S
GLENS FALLS    SUNNY     72  50  45 W9G17     29.80S
POUGHKEEPSIE   MOSUNNY   74  54  49 VRB5      29.83S
NEWBURGH       MOSUNNY   73  55  53 NW9G18    29.87R
MONTGOMERY     MOSUNNY   74  53  48 NW9       29.85S
WHITE PLAINS   SUNNY     76  55  48 NW13      29.84R
ISLIP          PTSUNNY   80  67  64 W12       29.82R
NEW YORK CITY  PTSUNNY   78  58  49 NW13      29.84R
CENTRAL PARK   MOSUNNY   76  55  48 VRB6      29.88R
$$

NYZ005>009-017-018-044>046-055-056-231600-
CENTRAL


CITY           SKY/WX    TMP DP  RH WIND       PRES   REMARKS
FULTON         MOSUNNY   69  57  65 W18G24    29.86R
SYRACUSE       MOSUNNY   70  56  61 W15       29.85S
ROME           PTSUNNY   69  55  60 W15G22    29.85R
ELMIRA         MOSUNNY   69  35  28 VRB6      29.89S
BINGHAMTON     SUNNY     65  52  62 NW12G20   29.90R
MONTICELLO     MOSUNNY   66  53  63 W9        29.91S
$$

NYZ026>034-041>043-087-231600-
NORTH


CITY           SKY/WX    TMP DP  RH WIND       PRES   REMARKS
WATERTOWN      MOSUNNY   70  58  65 W16G22    29.82R
FORT DRUM      NOT AVBL
OGDENSBURG     FAIR      70  56  62 W8G16     29.78S
MASSENA        MOSUNNY   68  55  63 SW14G24   29.77R
SARANAC LAKE   PTSUNNY   61  52  72 MISG      29.80S
PLATTSBURGH    PTSUNNY   70  51  51 W9        29.75S
$$

NYZ001>004-010>016-019>021-085-231600-
WEST


CITY           SKY/WX    TMP DP  RH WIND       PRES   REMARKS
NIAGARA FALLS  SUNNY     71  53  52 W14       29.87S
BUFFALO        MOSUNNY   69  54  58 W13       29.88S
DUNKIRK        SUNNY     71  55  56 W9        29.91S
JAMESTOWN      PTSUNNY   65  52  62 W14       29.95S
WELLSVILLE     MOSUNNY   66  53  63 NW12      29.95S
ROCHESTER      MOSUNNY   69  53  56 NW15      29.88S
PENN YAN       MOSUNNY   69  49  48 W10G18    29.90R
$$

             KEY
       WCI = WIND CHILL INDEX
       VSB = VISIBILITY
       HX  = HEAT INDEX
$$




USA.gov is the U.S. government's official web portal to all federal, state and local government web resources and services.